[[{"header":{"parameterUnit":"m.s-1","parameterCategory":1,"la1":30.2992,"la2":30.254,"lo1":-89.0895,"lo2":-89.0443,"dy":0.0025,"dx":0.0025,"nx":19,"ny":19,"refTime":"2026-04-17T09:00:00:Z","depth":0,"parameterNumber":2,"parameterNumberName":"U-component_of_WINDS"},"data":[0,0,0,-1.2633,-1.2633,-1.261,-1.261,-1.2603,-1.2603,0,0,0,0,0,0,0,0,0,0,0,-1.2652,-1.2652,-1.2633,-1.2633,-1.261,-1.261,-1.2603,-1.2603,0,0,0,0,0,0,0,0,0,0,0,-1.2652,-1.2652,-1.2653,-1.2633,-1.261,-1.261,-1.2603,-1.2612,0,0,0,0,0,0,0,0,0,0,-1.263,-1.266,-1.2652,-1.2653,-1.2633,-1.261,-1.261,-1.2612,-1.2612,-1.2622,0,-1.2634,0,-1.2619,-1.2604,-1.2604,0,0,0,-1.2623,-1.266,-1.2643,-1.2653,-1.2632,-1.261,-1.2618,-1.2612,-1.2611,-1.2621,-1.2634,-1.2633,-1.2619,-1.2604,-1.2604,-1.2696,-1.2697,0,0,-1.2625,-1.2654,-1.2644,-1.2643,-1.2648,-1.2619,-1.2617,-1.2611,-1.2627,-1.2634,-1.2632,-1.2618,-1.2604,-1.2604,-1.2695,-1.2696,0,0,0,-1.2634,-1.2656,-1.2638,-1.2644,-1.2639,-1.2618,-1.2616,-1.2627,-1.2619,-1.2632,-1.2618,-1.2604,-1.2604,-1.2694,-1.2696,-1.2769,0,0,0,-1.2635,-1.2661,-1.2639,-1.2657,-1.2639,-1.2632,-1.2633,-1.2619,-1.2617,-1.2618,-1.2604,-1.2604,-1.2693,-1.2695,-1.2765,-1.2799,0,0,0,-1.2649,-1.2663,-1.2664,-1.2659,-1.265,-1.2632,-1.2623,-1.2618,-1.2609,-1.2604,-1.2604,-1.2693,-1.2695,-1.2761,-1.2793,-1.2834,0,0,0,-1.2673,-1.2727,-1.2665,-1.2721,-1.2651,-1.2677,-1.2622,-1.264,-1.2644,-1.2604,-1.2693,-1.2696,-1.276,-1.2789,-1.283,-1.2875,-1.2896,0,0,-1.2758,-1.2739,-1.2769,-1.2713,-1.2758,-1.2678,-1.2734,-1.2708,-1.268,-1.2693,-1.2694,-1.2766,-1.2792,-1.2833,-1.3001,-1.3018,0,0,0,-1.2807,-1.2829,-1.2835,-1.284,-1.2823,-1.2812,-1.2775,-1.2766,-1.2776,-1.2692,-1.279,-1.2805,-1.2828,-1.2848,-1.2863,-1.2881,-1.2706,-1.2705,-1.2705,-1.2971,-1.2933,-1.2982,-1.2943,-1.2949,-1.2912,-1.2914,-1.2896,-1.2854,-1.2878,-1.2882,-1.2989,-1.3014,-1.3024,-1.3044,-1.2901,-1.2902,-1.2902,-1.2902,-1.3095,-1.3122,-1.3068,-1.3096,-1.3056,-1.308,-1.3047,-1.3018,-1.3035,-1.2982,-1.3,-1.2947,-1.3044,-1.306,-1.2907,-1.2906,-1.2906,-1.2905,-1.2905,-1.3199,-1.3206,-1.3195,-1.3201,-1.321,-1.3168,-1.3188,-1.315,-1.3115,-1.3133,-1.3135,-1.3133,-1.3129,-1.3136,-1.3136,-1.3137,-1.3137,-1.3137,-1.3138,-1.3314,-1.3298,-1.332,-1.3308,-1.3308,-1.3304,-1.3269,-1.3268,-1.3258,-1.3229,-1.3229,-1.3188,-1.306,-1.303,-1.3143,-1.3142,-1.3141,-1.3141,-1.3141,-1.3456,-1.3418,-1.3452,-1.3452,-1.3437,-1.3451,-1.3402,-1.3405,-1.3399,-1.3411,-1.3365,-1.3276,-1.3253,-1.3241,-1.3217,-1.3371,-1.3371,-1.3371,-1.3371,-1.3547,-1.3531,-1.3558,-1.3562,-1.3561,-1.3522,-1.3564,-1.3538,-1.3505,-1.35,-1.3472,-1.3435,-1.3424,-1.3408,-1.3392,-1.3369,-1.3559,-1.3559,-1.3559,-1.3634,-1.3617,-1.3659,-1.3627,-1.3613,-1.3602,-1.3641,-1.3648,-1.3603,-1.3566,-1.3495,-1.3488,-1.3427,-1.3409,-1.3372,-1.3349,-1.3304,0,0]},{"header":{"parameterUnit":"m.s-1","parameterCategory":1,"la1":30.2992,"la2":30.254,"lo1":-89.0895,"lo2":-89.0443,"dy":0.0025,"dx":0.0025,"nx":19,"ny":19,"refTime":"2026-04-17T09:00:00:Z","depth":0,"parameterNumber":3,"parameterNumberName":"V-component_of_WINDS"},"data":[0,0,0,3.4798,3.4797,3.4777,3.4777,3.4765,3.4765,0,0,0,0,0,0,0,0,0,0,0,3.4811,3.4812,3.4798,3.4797,3.4777,3.4777,3.4765,3.4765,0,0,0,0,0,0,0,0,0,0,0,3.4811,3.4811,3.4812,3.4797,3.4777,3.4777,3.4765,3.4775,0,0,0,0,0,0,0,0,0,0,3.4792,3.4813,3.4811,3.4812,3.4797,3.4777,3.4777,3.4775,3.4774,3.4779,0,3.4786,0,3.4775,3.4765,3.4765,0,0,0,3.4791,3.4813,3.4801,3.4812,3.4797,3.4777,3.4785,3.4775,3.4774,3.4778,3.4785,3.4785,3.4775,3.4765,3.4765,3.4814,3.4815,0,0,3.4792,3.4812,3.4802,3.4801,3.4805,3.4785,3.4784,3.4774,3.4783,3.4785,3.4784,3.4775,3.4765,3.4765,3.4814,3.4814,0,0,0,3.48,3.4813,3.48,3.4802,3.4797,3.4785,3.4783,3.4783,3.4778,3.4784,3.4775,3.4765,3.4765,3.4813,3.4814,3.4859,0,0,0,3.48,3.4817,3.4801,3.4813,3.4798,3.479,3.4793,3.4778,3.4777,3.4775,3.4765,3.4765,3.4813,3.4814,3.4856,3.4876,0,0,0,3.481,3.4818,3.4818,3.4814,3.4806,3.479,3.4783,3.4778,3.4771,3.4765,3.4765,3.4812,3.4813,3.4854,3.4872,3.4895,0,0,0,3.4826,3.4857,3.4819,3.485,3.4806,3.4818,3.4783,3.479,3.479,3.4765,3.4813,3.4814,3.4853,3.487,3.4893,3.4918,3.493,0,0,3.4876,3.4864,3.488,3.4846,3.4869,3.4819,3.4848,3.4829,3.4811,3.4814,3.4815,3.4857,3.4872,3.4895,3.4992,3.5002,0,0,0,3.4903,3.4915,3.4917,3.4918,3.4905,3.4895,3.487,3.4863,3.4866,3.4817,3.4871,3.4879,3.4892,3.4903,3.4911,3.4921,3.482,3.482,3.482,3.5,3.4976,3.5002,3.4976,3.4978,3.4952,3.4951,3.4938,3.4911,3.4925,3.4926,3.4988,3.5002,3.5008,3.5018,3.4937,3.4937,3.4937,3.4938,3.5071,3.5084,3.5051,3.5065,3.5039,3.505,3.5028,3.501,3.5017,3.4985,3.4995,3.4962,3.5019,3.5027,3.4941,3.494,3.494,3.4939,3.4939,3.5131,3.5134,3.5126,3.5126,3.5129,3.5101,3.511,3.5086,3.5064,3.5074,3.5072,3.5072,3.5068,3.5075,3.5075,3.5076,3.5076,3.5076,3.5076,3.5197,3.5187,3.5197,3.5188,3.5186,3.5181,3.5157,3.5155,3.5147,3.5129,3.5128,3.5102,3.503,3.5012,3.5079,3.5079,3.5078,3.5078,3.5078,3.5277,3.5256,3.5272,3.527,3.5258,3.5263,3.5233,3.5232,3.5226,3.5232,3.5204,3.5154,3.514,3.5133,3.5118,3.5209,3.5209,3.5209,3.5209,3.5328,3.5319,3.5331,3.533,3.5327,3.5303,3.5323,3.5306,3.5285,3.528,3.5264,3.5242,3.5237,3.5225,3.5217,3.5202,3.5312,3.5312,3.5313,3.5376,3.5366,3.5387,3.5366,3.5355,3.5347,3.5365,3.5367,3.5338,3.5316,3.5276,3.5272,3.5237,3.5227,3.5203,3.519,3.5163,0,0]}]]